Wetbulb
64.87 61.92 56.42 52.44 46.45 44.07 39.92 42.60 46.75 47.26 47.11 51.11 52.34 50.49 50.68 53.70 51.98 47.72 62.42 65.84 67.67 68.36 70.26 70.97 71.69 72.23 72.34 71.95 71.84 71.48 71.21 69.88 69.49 68.48 68.65 68.96 68.17 67.98 67.21 66.90 67.89 67.28 66.66 65.96 65.72 65.57 65.11 65.03 65.12
61.87 61.04 54.59 47.34 41.46 38.68 41.35 45.95 46.81 48.91 50.14 54.62 55.06 53.61 53.12 50.20 58.38 59.95 62.42 66.74 68.10 69.17 70.10 70.33 70.73 71.72 71.86 71.78 71.59 71.50 71.00 70.55 69.75 68.57 68.15 69.35 68.26 67.52 66.86 66.34 66.91 66.37 65.98 65.70 65.70 65.71 65.88 65.67 65.72
60.77 57.94 51.13 43.81 38.94 38.14 40.86 45.92 48.12 49.74 51.22 50.92 51.00 55.58 54.14 54.17 58.23 60.95 63.64 66.94 68.47 68.63 69.70 69.65 70.61 71.81 71.61 71.48 71.07 70.65 70.30 70.01 69.73 68.99 67.86 69.89 68.37 67.39 66.72 66.21 66.42 66.05 65.73 65.81 65.64 65.47 65.65 65.91 65.83
56.37 55.07 50.90 43.92 40.43 40.97 43.01 47.03 49.43 50.16 51.35 53.10 53.74 51.93 56.85 59.96 60.00 62.13 66.43 67.53 67.87 67.96 69.13 69.34 70.92 71.69 71.22 70.74 70.38 69.90 69.57 69.43 69.08 68.70 69.02 68.76 68.32 67.21 67.70 66.66 67.18 66.30 65.57 65.47 65.30 65.42 65.68 65.18 65.17
54.91 50.71 44.38 42.30 42.00 45.58 43.17 47.03 50.71 49.59 50.08 51.09 52.26 50.98 53.61 60.92 62.65 65.16 65.78 66.97 66.90 67.14 68.24 69.25 70.25 70.72 70.76 70.42 69.87 69.59 69.46 69.03 69.07 68.37 67.88 68.26 67.91 67.82 67.60 66.99 66.36 65.87 65.03 64.98 64.78 65.15 64.85 63.82 63.60
49.97 48.75 42.11 39.45 42.00 46.63 45.81 46.45 47.61 48.91 51.21 50.24 52.69 52.48 54.14 61.14 61.72 63.67 65.03 65.25 67.09 67.25 68.20 68.62 67.14 68.54 69.44 69.74 69.53 69.32 69.45 68.82 68.60 68.31 68.20 68.48 68.21 68.26 67.53 67.12 66.60 65.37 64.91 64.83 64.89 64.57 63.28 62.53 63.10
47.83 45.33 41.87 40.72 43.25 45.28 46.48 48.87 48.06 48.95 50.43 50.62 52.57 51.26 54.38 59.02 61.48 63.95 64.53 65.36 66.50 67.52 67.83 67.51 67.49 67.17 66.36 67.61 67.75 68.28 68.82 67.73 67.88 67.67 67.58 67.05 66.27 67.73 67.46 66.94 66.55 65.54 64.72 64.72 64.54 63.36 62.57 62.08 62.76
49.28 46.79 41.47 40.28 42.33 43.78 47.70 49.02 49.20 49.84 49.36 53.99 54.53 49.30 49.39 58.87 62.06 63.60 64.72 64.81 64.83 66.43 67.21 66.50 66.22 66.35 66.32 65.94 64.72 65.63 66.32 66.43 66.30 65.69 64.62 63.49 63.80 65.74 65.77 64.80 66.13 66.37 65.30 64.94 64.17 63.17 62.42 61.65 61.59
50.59 42.90 39.84 42.25 44.08 43.52 48.02 46.38 48.92 49.96 51.27 52.27 54.47 53.71 56.78 60.52 61.79 61.76 61.39 63.15 64.74 65.28 65.92 66.31 66.16 65.68 65.43 65.22 64.00 63.37 63.86 64.11 63.80 62.87 61.67 60.62 59.87 63.09 63.71 62.68 64.73 66.12 65.62 65.03 64.14 63.41 62.78 62.04 60.21
46.85 40.62 42.33 45.70 45.05 45.11 47.36 48.18 46.51 46.98 47.68 49.33 51.60 56.61 59.54 60.95 60.05 59.85 59.94 60.53 61.36 63.04 63.96 65.61 65.42 65.29 64.93 66.30 64.21 63.22 63.68 62.47 61.56 60.81 59.88 59.43 59.35 59.23 60.14 60.16 62.12 64.16 64.11 65.14 64.56 63.91 63.03 59.43 55.30
46.46 42.56 45.34 46.81 47.71 48.67 48.04 47.70 48.59 46.15 44.71 47.50 49.37 51.42 57.46 57.95 59.12 59.55 59.73 60.51 61.45 63.04 63.92 64.93 64.99 65.02 64.57 65.19 63.65 63.09 62.27 61.48 60.64 59.69 58.90 58.83 58.76 57.86 58.02 58.55 60.13 60.39 60.29 61.27 62.46 61.13 58.76 56.20 55.56
44.25 48.37 48.42 49.85 49.98 48.95 47.81 48.17 46.66 47.37 49.06 51.08 50.69 51.80 58.75 58.78 58.94 59.73 60.18 60.60 60.80 61.00 63.53 64.27 64.67 64.68 64.60 64.71 64.12 64.09 62.55 61.32 60.04 59.39 58.66 57.74 56.90 56.43 56.54 57.20 58.41 58.49 58.75 58.42 58.42 58.08 58.14 56.61 56.14
44.49 45.63 47.99 48.64 48.40 47.66 49.00 47.66 47.52 47.65 50.87 51.14 50.83 53.74 57.97 58.84 59.50 60.54 61.13 61.32 61.36 60.68 61.78 63.40 64.33 64.09 64.43 64.18 64.21 64.61 63.71 61.96 61.01 59.74 59.01 58.26 56.80 56.08 55.95 56.30 57.19 57.24 57.18 56.50 55.87 55.65 55.86 55.93 55.89
46.30 46.86 47.12 47.83 47.16 47.62 46.32 45.98 47.33 47.55 50.02 49.98 50.87 51.04 54.12 57.88 59.00 58.62 58.97 60.52 60.34 62.05 61.25 62.29 63.80 64.02 64.30 64.06 63.78 64.17 64.12 62.94 61.38 60.37 59.47 58.64 58.23 56.82 56.21 56.12 56.58 56.78 56.68 56.25 55.42 55.07 54.83 54.59 55.64
47.10 43.57 45.35 45.36 46.19 45.86 45.81 43.36 43.72 47.55 48.61 48.22 48.64 49.17 50.28 51.73 57.97 58.51 59.77 60.07 61.40 62.11 62.89 61.14 62.83 63.81 63.31 63.70 63.69 63.45 63.39 63.20 61.95 61.09 59.91 59.08 58.77 58.02 57.56 57.25 56.90 57.56 57.19 56.49 55.44 55.09 55.06 55.03 55.58
41.39 40.52 37.39 43.62 45.49 46.43 45.21 39.76 44.77 48.18 45.32 46.38 46.69 46.33 47.98 49.17 51.15 55.97 59.59 60.11 61.07 61.84 61.85 62.38 62.63 62.98 62.87 63.05 63.49 63.53 63.12 62.88 62.51 61.79 60.86 59.32 59.18 58.95 58.14 57.82 57.60 57.60 57.19 57.32 55.20 55.11 54.68 54.31 54.36
40.31 33.64 35.76 39.74 44.46 44.18 43.27 38.21 43.96 46.35 46.00 45.17 45.21 45.54 46.60 47.76 48.92 50.43 54.02 59.57 60.56 61.25 61.86 62.07 62.35 61.82 62.18 62.83 63.04 63.19 62.93 62.72 62.59 62.27 61.39 60.14 59.34 59.19 58.85 58.28 58.05 57.38 57.26 56.98 56.82 55.26 54.86 53.31 53.69
36.25 34.53 35.74 36.00 40.96 42.16 41.20 41.15 43.07 45.33 44.66 44.21 44.42 45.73 45.46 46.64 48.94 51.85 51.03 52.77 58.34 60.35 61.32 62.08 62.36 62.60 61.96 62.29 62.12 62.36 62.18 62.35 62.72 62.04 61.64 61.01 59.97 59.46 58.89 58.69 58.18 57.48 56.94 56.33 55.34 55.45 54.27 53.88 54.64
39.98 34.61 35.14 38.34 42.93 41.28 40.28 40.79 42.37 44.56 44.57 44.35 45.51 45.84 46.85 48.01 51.13 52.01 52.17 51.55 52.53 56.91 59.61 60.79 61.46 62.19 62.14 60.79 60.10 60.08 59.92 60.61 60.95 61.63 61.60 61.15 60.68 59.91 59.32 59.05 58.19 57.18 56.85 56.56 56.01 55.72 54.72 53.93 52.78
41.26 38.41 35.69 41.10 44.46 43.37 42.50 40.67 43.38 42.98 43.86 45.79 46.54 47.02 47.54 48.43 49.28 50.46 51.46 52.48 49.94 52.75 57.56 59.76 60.95 61.79 62.10 62.18 61.63 61.42 61.27 61.03 61.09 60.74 60.81 61.10 60.70 60.35 59.76 59.41 58.68 57.82 57.23 56.76 56.11 55.57 53.34 54.15 53.65
38.68 37.86 35.78 36.58 39.45 40.86 39.29 37.87 39.71 43.20 42.86 45.03 45.50 45.78 47.09 47.31 48.73 50.21 50.65 50.59 51.30 49.46 53.23 58.24 60.11 61.37 61.91 62.26 62.06 61.54 61.39 60.78 59.67 60.14 59.66 60.24 60.57 60.56 60.35 59.95 59.59 58.26 57.42 56.73 56.04 55.25 54.85 53.47 52.26
35.49 40.16 39.65 37.96 37.77 32.92 39.28 29.59 33.77 37.32 39.38 41.07 42.98 43.43 42.86 45.59 47.65 48.42 48.99 49.64 49.25 51.24 51.43 56.24 59.02 60.57 61.77 62.15 61.35 60.35 59.54 58.86 60.02 60.51 60.67 60.44 59.82 60.13 60.43 60.39 59.58 58.76 57.40 56.89 56.16 55.67 55.19 54.62 52.51
36.57 40.47 39.00 37.80 36.18 32.36 33.82 32.91 30.30 35.86 36.22 39.77 41.45 42.44 42.97 43.92 44.87 46.45 47.94 49.45 50.70 50.57 50.34 51.23 57.16 59.65 60.94 61.43 61.38 60.68 59.63 60.53 60.99 60.62 60.31 60.22 59.91 59.54 59.79 59.85 59.64 58.91 58.25 56.97 56.64 55.05 54.27 54.74 54.21
40.64 37.32 36.15 34.59 35.55 29.22 31.82 33.13 31.89 33.19 36.01 37.45 39.15 41.80 42.29 43.21 44.90 46.02 47.79 48.45 48.21 49.07 49.23 50.17 53.28 58.19 60.01 60.71 60.96 60.71 60.08 59.89 59.75 59.68 59.40 59.91 59.92 59.57 59.29 59.20 59.32 59.27 58.82 57.86 56.81 55.90 54.65 54.61 54.68
38.98 34.26 26.35 20.74 26.40 22.62 29.54 29.88 33.30 36.97 38.83 39.51 39.93 41.04 42.27 43.16 43.00 43.84 43.96 45.12 46.27 46.69 47.10 47.89 52.49 56.09 58.62 59.61 60.28 60.62 60.74 60.45 59.89 59.86 59.63 59.53 59.37 59.30 59.22 59.04 58.58 58.79 58.82 58.56 57.84 56.48 55.53 54.76 54.43
35.35 34.73 27.66 18.99 18.00 21.98 29.39 26.00 31.37 39.11 41.31 40.72 41.09 41.34 40.91 41.10 42.46 43.34 43.59 44.38 45.18 46.63 47.66 47.34 47.69 53.16 56.74 58.20 59.50 60.48 60.92 61.09 60.93 60.78 60.57 60.20 60.04 60.21 60.49 59.44 59.25 58.81 59.03 58.51 58.21 57.38 56.52 55.81 55.06
33.18 32.43 36.26 25.97 20.11 20.96 25.58 29.23 34.79 38.13 39.08 37.20 36.89 37.58 39.26 40.77 41.98 43.16 43.87 44.30 44.68 44.56 44.87 45.91 47.71 49.64 52.49 56.21 58.25 59.47 60.37 60.51 60.75 60.94 61.24 61.09 61.26 61.05 60.74 60.17 59.01 59.04 58.73 58.64 57.99 57.32 56.78 56.67 55.86
35.81 37.18 29.07 28.47 20.66 19.49 24.68 24.85 27.23 31.19 33.70 36.07 35.19 38.64 39.96 40.84 41.22 41.98 42.12 42.15 42.27 42.52 42.78 43.41 43.93 45.01 46.39 47.62 49.98 54.70 58.77 59.88 60.88 61.25 60.75 60.96 61.45 61.51 60.70 60.05 59.53 58.93 58.83 58.40 58.01 57.44 57.39 56.79 57.00
34.17 32.24 32.76 30.84 25.94 18.66 16.30 22.79 32.43 34.51 34.52 33.89 34.75 38.39 40.02 41.12 39.12 38.89 40.01 39.43 39.17 39.46 39.65 40.09 40.62 42.73 41.57 42.68 44.63 47.07 49.98 55.02 59.47 60.21 60.94 61.16 61.54 61.56 61.08 60.45 59.60 59.12 58.59 58.44 57.67 57.46 57.50 56.82 56.85
36.92 34.25 33.67 27.07 21.78 26.59 25.53 25.62 36.06 36.04 35.36 35.76 35.95 38.44 39.84 37.03 37.30 37.72 38.22 38.38 37.37 36.95 37.07 37.47 38.64 40.07 39.60 39.76 40.77 42.55 46.01 48.05 51.05 55.94 59.67 60.75 60.95 61.67 61.48 60.99 60.27 59.56 59.11 58.67 57.91 57.20 57.29 56.90 56.63
MSLP
1013.55 1012.87 1012.80 1013.27 1015.26 1016.50 1017.19 1017.06 1016.50 1016.21 1016.09 1015.89 1015.89 1016.13 1016.61 1016.97 1017.32 1018.23 1017.64 1017.82 1017.84 1018.22 1018.39 1018.56 1018.62 1018.80 1018.93 1019.22 1019.43 1019.49 1019.62 1019.78 1019.97 1020.25 1020.41 1020.55 1020.69 1020.74 1020.76 1020.80 1020.92 1021.08 1021.21 1021.34 1021.55 1021.58 1021.62 1021.63 1021.56
1013.64 1013.06 1013.42 1014.91 1016.65 1017.81 1017.91 1017.06 1016.50 1016.23 1016.22 1016.24 1016.23 1016.69 1016.93 1017.26 1017.30 1017.65 1017.74 1017.93 1017.90 1018.24 1018.55 1018.60 1018.91 1019.01 1019.22 1019.35 1019.54 1019.68 1019.72 1019.87 1020.02 1020.28 1020.53 1020.70 1020.95 1021.05 1021.10 1021.12 1021.21 1021.40 1021.49 1021.63 1021.79 1021.92 1022.02 1022.02 1022.00
1013.61 1013.74 1015.02 1016.48 1018.06 1018.31 1017.74 1017.05 1016.72 1016.39 1016.42 1016.46 1016.73 1017.02 1017.29 1017.33 1017.44 1017.58 1017.22 1017.53 1018.10 1018.38 1018.77 1018.90 1018.95 1019.26 1019.41 1019.58 1019.64 1019.78 1019.92 1020.01 1020.16 1020.26 1020.53 1020.76 1021.10 1021.29 1021.37 1021.45 1021.48 1021.59 1021.67 1021.85 1022.05 1022.23 1022.36 1022.38 1022.23
1014.48 1014.84 1016.49 1017.43 1018.32 1017.96 1017.56 1016.92 1016.74 1016.43 1016.30 1016.42 1016.88 1017.43 1017.53 1017.46 1017.56 1017.50 1017.57 1017.60 1018.03 1018.61 1018.75 1019.18 1019.26 1019.21 1019.51 1019.64 1019.74 1019.85 1019.95 1020.04 1020.18 1020.40 1020.56 1020.88 1021.14 1021.44 1021.52 1021.55 1021.79 1021.80 1022.01 1022.12 1022.25 1022.41 1022.62 1022.65 1022.52
1015.48 1016.64 1017.83 1018.56 1018.60 1017.90 1017.29 1016.82 1016.75 1016.62 1016.60 1016.73 1016.92 1017.49 1017.87 1017.54 1017.63 1017.70 1017.99 1018.03 1018.33 1018.71 1019.04 1019.22 1019.36 1019.54 1019.48 1019.70 1019.79 1019.90 1020.07 1020.26 1020.31 1020.43 1020.61 1020.96 1021.29 1021.53 1021.70 1021.85 1022.03 1022.07 1022.32 1022.44 1022.53 1022.74 1022.89 1022.85 1022.80
1017.06 1017.94 1019.01 1019.26 1018.86 1017.97 1017.24 1016.68 1016.74 1016.76 1016.79 1016.93 1017.29 1017.75 1018.07 1018.00 1018.09 1018.41 1018.47 1018.60 1018.72 1018.84 1019.07 1019.39 1019.56 1019.60 1019.67 1019.66 1019.90 1020.01 1020.08 1020.27 1020.54 1020.63 1020.72 1020.95 1021.22 1021.57 1021.84 1022.04 1022.25 1022.35 1022.55 1022.74 1022.86 1023.03 1023.13 1023.12 1023.07
1017.85 1018.88 1019.53 1019.40 1019.02 1018.11 1017.35 1016.88 1017.02 1017.07 1016.89 1017.13 1017.24 1017.98 1018.40 1018.17 1018.31 1018.54 1018.87 1018.94 1019.13 1019.24 1019.37 1019.52 1019.74 1019.83 1019.88 1019.84 1019.90 1020.03 1020.21 1020.32 1020.55 1020.85 1020.96 1021.04 1021.28 1021.64 1021.91 1022.15 1022.41 1022.55 1022.71 1022.88 1023.10 1023.24 1023.32 1023.34 1023.33
1018.22 1019.20 1019.78 1019.31 1019.08 1018.50 1017.63 1017.18 1017.08 1017.15 1017.16 1017.21 1017.40 1018.05 1018.32 1018.10 1018.31 1018.67 1018.95 1019.35 1019.57 1019.53 1019.69 1019.80 1019.94 1020.05 1020.09 1020.13 1020.02 1020.13 1020.24 1020.38 1020.57 1020.84 1021.16 1021.29 1021.41 1021.67 1021.88 1022.21 1022.36 1022.59 1022.82 1023.07 1023.26 1023.34 1023.45 1023.52 1023.49
1018.38 1019.51 1019.93 1019.29 1018.80 1018.47 1017.83 1017.53 1017.26 1017.28 1017.26 1017.41 1017.71 1017.99 1018.05 1018.16 1018.51 1018.99 1019.35 1019.50 1019.64 1019.82 1019.86 1019.84 1020.16 1020.34 1020.41 1020.36 1020.41 1020.28 1020.40 1020.51 1020.64 1020.89 1021.14 1021.42 1021.71 1021.79 1021.95 1022.23 1022.46 1022.64 1022.92 1023.16 1023.30 1023.39 1023.54 1023.70 1023.74
1019.04 1019.87 1019.59 1018.91 1018.42 1018.18 1018.09 1017.85 1017.69 1017.64 1017.67 1017.72 1018.00 1018.12 1018.20 1018.36 1018.78 1019.12 1019.31 1019.52 1019.58 1019.54 1019.67 1019.62 1019.96 1020.31 1020.59 1020.57 1020.58 1020.66 1020.51 1020.74 1020.85 1020.99 1021.19 1021.49 1021.74 1021.95 1022.15 1022.31 1022.50 1022.63 1022.85 1023.12 1023.31 1023.43 1023.57 1023.78 1023.96
1019.39 1019.61 1019.27 1018.96 1018.49 1018.06 1018.05 1018.03 1017.89 1017.83 1017.96 1017.83 1018.06 1018.22 1018.65 1018.85 1019.06 1019.16 1019.19 1019.21 1019.01 1019.12 1019.34 1019.15 1019.35 1019.84 1020.39 1020.57 1020.76 1020.85 1020.82 1020.74 1020.91 1021.03 1021.24 1021.34 1021.70 1021.96 1022.21 1022.57 1022.66 1022.79 1022.83 1023.18 1023.35 1023.51 1023.69 1023.85 1023.93
1019.81 1019.29 1019.23 1018.97 1018.85 1018.65 1018.42 1018.23 1018.18 1018.07 1017.79 1017.48 1017.73 1018.15 1018.74 1019.08 1019.11 1018.89 1018.75 1018.78 1018.82 1018.94 1018.94 1019.09 1019.15 1019.34 1019.72 1020.27 1020.58 1020.81 1021.01 1020.93 1020.91 1020.98 1021.12 1021.56 1021.71 1021.93 1022.19 1022.38 1022.60 1022.89 1023.10 1023.29 1023.45 1023.65 1023.69 1023.79 1023.82
1019.94 1019.59 1019.21 1019.06 1018.93 1018.95 1018.75 1018.58 1018.54 1018.05 1017.80 1017.69 1017.90 1018.22 1018.70 1018.87 1018.78 1018.58 1018.53 1018.60 1018.61 1018.54 1018.49 1018.58 1018.83 1019.07 1019.17 1019.57 1020.09 1020.29 1020.71 1020.86 1020.82 1020.91 1021.03 1021.21 1021.75 1022.00 1022.02 1022.36 1022.50 1022.73 1023.07 1023.36 1023.56 1023.69 1023.80 1023.81 1023.77
1020.09 1019.84 1019.61 1019.24 1019.31 1019.16 1019.12 1018.86 1018.74 1017.82 1017.92 1018.09 1018.20 1018.35 1018.52 1018.65 1018.47 1018.66 1018.65 1018.26 1018.31 1018.07 1017.94 1018.14 1018.35 1018.52 1018.93 1018.82 1018.89 1019.57 1020.04 1020.47 1020.75 1020.74 1020.82 1021.04 1021.17 1021.53 1021.96 1022.14 1022.34 1022.58 1022.74 1023.03 1023.29 1023.43 1023.57 1023.67 1023.66
1020.49 1020.64 1020.21 1019.84 1019.52 1019.31 1019.17 1019.07 1018.75 1018.11 1018.34 1018.53 1018.70 1018.28 1018.20 1018.11 1018.12 1018.09 1017.82 1017.89 1017.59 1017.32 1017.33 1017.55 1017.74 1017.99 1018.23 1018.50 1018.54 1018.48 1019.32 1019.82 1020.18 1020.35 1020.45 1020.57 1020.77 1020.97 1021.22 1021.57 1021.98 1022.02 1022.29 1022.58 1022.97 1023.22 1023.29 1023.39 1023.38
1021.23 1021.37 1021.22 1020.34 1019.87 1019.47 1019.65 1018.74 1019.06 1018.60 1018.72 1018.76 1018.73 1018.59 1018.06 1017.72 1017.69 1017.37 1017.15 1017.07 1016.97 1016.92 1016.88 1016.82 1017.02 1017.32 1017.58 1017.67 1017.88 1018.15 1017.86 1018.87 1019.16 1019.56 1019.83 1020.01 1020.15 1020.42 1020.74 1021.00 1021.13 1021.56 1021.86 1022.14 1022.57 1022.80 1023.07 1023.13 1023.16
1021.72 1021.71 1021.77 1021.27 1020.42 1020.20 1020.02 1019.34 1019.12 1019.03 1019.03 1019.04 1018.79 1018.70 1018.30 1017.59 1017.12 1016.80 1016.46 1016.31 1016.17 1016.07 1016.14 1016.15 1016.21 1016.32 1016.48 1016.81 1017.15 1017.37 1017.41 1016.92 1017.85 1018.39 1018.84 1019.17 1019.52 1019.83 1020.05 1020.37 1020.66 1021.04 1021.44 1021.63 1021.80 1022.23 1022.49 1022.72 1022.79
1021.38 1021.72 1021.71 1021.49 1020.96 1020.64 1020.38 1019.53 1019.73 1019.37 1019.37 1019.28 1018.76 1018.29 1018.09 1017.64 1016.79 1015.89 1015.59 1015.39 1015.21 1015.14 1015.15 1015.21 1015.38 1015.32 1015.48 1016.01 1016.60 1016.93 1017.27 1017.05 1016.16 1016.96 1017.57 1018.08 1018.58 1019.08 1019.53 1019.69 1020.03 1020.46 1020.82 1021.04 1021.25 1021.54 1021.85 1021.96 1022.05
1021.20 1021.74 1021.90 1021.63 1021.26 1021.23 1020.81 1020.06 1019.83 1019.44 1019.13 1018.88 1018.35 1017.85 1017.32 1016.72 1016.00 1015.37 1014.74 1014.31 1014.09 1014.05 1014.06 1014.09 1014.26 1014.10 1014.73 1015.24 1015.68 1015.98 1015.92 1016.22 1016.68 1015.90 1016.63 1017.09 1017.51 1017.98 1018.48 1018.77 1019.13 1019.70 1020.00 1020.22 1020.62 1020.92 1021.16 1021.54 1021.70
1021.42 1021.93 1022.17 1021.94 1021.44 1021.43 1020.96 1019.39 1019.35 1019.28 1018.79 1018.30 1017.86 1017.29 1016.59 1015.93 1015.30 1014.65 1014.06 1013.52 1013.42 1013.20 1013.12 1012.97 1012.86 1013.08 1013.60 1013.91 1014.16 1014.48 1014.78 1015.23 1015.46 1015.91 1015.63 1016.28 1016.59 1016.78 1017.22 1017.68 1018.20 1018.55 1019.24 1019.63 1019.74 1020.08 1020.55 1020.61 1021.06
1021.72 1021.91 1022.34 1022.15 1021.74 1021.57 1021.28 1018.71 1019.19 1018.30 1017.92 1017.70 1017.36 1016.73 1016.11 1015.67 1014.90 1014.09 1013.68 1013.16 1012.67 1012.49 1012.25 1012.05 1012.00 1011.81 1012.29 1012.68 1013.15 1013.73 1014.26 1014.49 1014.72 1014.80 1015.08 1014.40 1015.24 1015.92 1016.20 1016.41 1016.84 1017.49 1018.00 1018.38 1018.90 1019.15 1019.57 1019.80 1020.25
1021.44 1021.41 1022.14 1022.32 1022.53 1022.02 1021.36 1018.57 1018.45 1018.21 1017.54 1017.22 1016.81 1016.16 1016.09 1015.46 1014.58 1013.97 1013.29 1012.65 1012.24 1011.66 1011.33 1011.20 1011.00 1010.99 1011.25 1011.65 1012.29 1012.57 1012.73 1013.04 1013.06 1013.35 1013.85 1013.88 1013.65 1014.50 1015.08 1015.34 1015.73 1016.16 1016.75 1017.21 1017.59 1018.10 1018.26 1019.04 1019.29
1021.29 1021.47 1022.03 1022.44 1022.73 1022.71 1021.49 1021.44 1017.46 1017.69 1017.32 1016.81 1016.12 1016.02 1015.41 1015.23 1014.84 1013.91 1012.97 1012.21 1011.36 1011.04 1010.66 1010.32 1010.02 1010.10 1010.24 1010.76 1011.25 1011.73 1012.01 1012.08 1012.24 1012.73 1012.88 1013.23 1013.37 1013.12 1013.79 1014.23 1014.60 1015.05 1015.44 1015.84 1016.33 1016.91 1017.32 1017.53 1017.87
1021.02 1021.71 1022.35 1022.73 1023.14 1022.62 1020.87 1021.63 1016.65 1017.14 1016.47 1016.28 1016.03 1015.82 1015.62 1015.37 1014.82 1013.92 1013.01 1011.97 1011.27 1010.64 1010.23 1009.80 1009.51 1009.50 1009.71 1009.98 1010.43 1010.80 1011.04 1011.30 1011.60 1011.93 1012.14 1012.20 1012.38 1012.59 1012.30 1012.78 1013.16 1013.64 1014.19 1014.57 1015.00 1015.55 1016.07 1016.30 1016.64
1020.98 1021.99 1022.79 1023.19 1023.16 1021.79 1020.87 1021.03 1017.64 1016.22 1016.18 1016.02 1016.11 1016.09 1015.82 1015.55 1015.14 1014.16 1013.45 1012.43 1011.66 1011.07 1010.61 1010.20 1009.80 1009.50 1009.44 1009.62 1009.83 1010.09 1010.02 1010.26 1010.36 1010.60 1010.89 1011.21 1011.40 1011.46 1011.29 1011.52 1012.27 1012.74 1013.03 1013.33 1013.79 1014.27 1014.57 1014.89 1015.21
1020.95 1021.56 1021.92 1022.26 1022.72 1022.03 1021.35 1019.82 1017.15 1015.78 1015.34 1015.60 1015.74 1015.87 1015.91 1015.88 1015.29 1014.62 1014.26 1013.34 1012.73 1012.01 1011.79 1011.28 1010.79 1010.17 1009.77 1009.64 1009.63 1009.64 1009.67 1009.70 1009.89 1010.14 1010.31 1010.40 1010.48 1010.30 1010.80 1011.30 1011.50 1011.79 1012.19 1012.48 1012.86 1013.02 1013.10 1013.45 1013.81
1020.30 1020.62 1020.72 1022.04 1022.52 1022.48 1021.08 1019.11 1016.95 1015.77 1015.12 1015.42 1015.69 1015.90 1016.14 1016.00 1015.46 1015.13 1014.73 1014.46 1013.95 1013.36 1013.03 1012.77 1012.30 1011.41 1010.93 1010.78 1010.32 1010.11 1009.60 1009.58 1009.58 1009.49 1009.54 1009.61 1009.68 1009.70 1009.71 1009.84 1010.07 1010.19 1010.69 1011.14 1011.51 1011.74 1011.90 1012.29 1012.44
1018.89 1019.60 1021.01 1021.79 1022.11 1021.73 1020.33 1019.17 1017.02 1015.67 1015.58 1015.63 1016.02 1016.32 1016.28 1016.06 1015.89 1015.78 1015.71 1015.61 1015.31 1014.87 1014.39 1013.84 1013.53 1012.77 1012.25 1011.96 1011.67 1011.00 1010.16 1009.50 1009.38 1009.11 1008.93 1008.78 1008.76 1008.91 1008.85 1008.83 1008.89 1008.97 1009.23 1009.58 1010.02 1010.36 1010.57 1010.88 1011.04
1018.71 1019.02 1019.45 1020.24 1021.04 1020.71 1020.20 1018.02 1015.61 1015.38 1015.58 1015.88 1016.33 1016.81 1016.85 1016.81 1016.98 1017.04 1017.10 1017.03 1016.76 1016.21 1015.54 1015.20 1014.77 1014.20 1013.70 1013.47 1012.87 1011.54 1010.74 1009.87 1009.29 1008.92 1008.47 1008.06 1007.88 1007.93 1007.84 1007.83 1007.84 1007.80 1008.10 1008.37 1008.83 1008.83 1008.98 1009.21 1009.48
1017.53 1017.55 1018.73 1019.55 1020.14 1020.09 1019.25 1016.88 1015.44 1015.52 1015.73 1016.24 1016.97 1017.24 1017.56 1018.13 1018.23 1017.95 1017.70 1017.85 1017.50 1017.19 1017.17 1016.38 1015.64 1015.36 1015.29 1014.63 1013.85 1012.67 1011.47 1010.51 1009.98 1009.18 1008.47 1007.81 1007.25 1006.94 1006.82 1006.68 1006.59 1006.62 1006.75 1006.93 1007.39 1007.58 1007.53 1007.69 1007.75
Wind_Speed
10 9 2 6 6 6 2 1 2 2 1 2 2 3 5 3 3 3 3 5 9 7 5 8 12 15 15 15 14 14 15 14 12 12 10 11 12 12 13 12 12 13 13 12 12 11 11 12 10
7 5 5 3 7 5 5 3 2 1 3 6 5 3 3 1 0 4 6 6 9 8 5 7 11 14 13 12 9 10 12 12 12 14 9 10 13 12 12 12 12 13 12 12 11 11 10 7 6
7 4 5 5 3 4 3 2 2 2 3 1 2 4 1 1 1 7 2 11 8 7 6 7 12 13 13 11 12 11 11 11 9 12 10 13 14 13 13 11 12 11 12 11 11 10 8 6 6
5 6 5 6 2 1 2 3 2 1 1 3 2 3 4 2 2 4 9 11 10 6 7 8 11 14 13 12 12 11 10 10 9 8 13 11 13 14 12 10 12 9 11 10 10 9 7 5 8
5 4 5 4 2 4 2 1 4 1 1 2 1 2 3 7 5 8 8 8 10 7 5 7 11 11 13 12 12 11 10 10 11 8 9 10 9 13 11 7 11 9 8 8 8 7 5 4 5
5 3 5 2 3 5 4 2 3 1 1 2 4 3 3 5 4 4 5 6 6 9 7 5 8 10 10 12 11 10 10 10 8 10 8 11 8 13 12 10 8 9 8 7 6 5 4 3 4
6 4 4 2 2 4 4 2 2 1 0 1 5 3 3 4 5 6 5 5 5 5 6 5 5 7 8 10 10 9 10 11 9 7 8 8 7 12 12 10 8 9 8 7 6 4 3 2 3
5 5 3 1 1 1 6 4 2 2 2 1 2 2 2 5 8 7 6 5 4 5 5 5 4 5 5 5 9 9 10 11 10 9 6 6 7 9 11 9 10 10 9 7 5 4 2 1 3
3 5 2 3 3 1 5 5 3 1 1 2 2 2 2 2 7 6 4 4 4 3 5 6 5 4 4 5 5 8 8 9 10 9 9 7 3 5 7 8 7 9 9 8 7 5 3 1 3
4 4 8 3 3 1 1 3 2 3 5 2 1 1 2 7 6 7 7 8 6 7 6 6 6 6 5 5 4 5 5 4 5 6 6 4 5 3 4 5 8 9 10 9 8 6 4 1 1
1 4 4 3 2 1 3 4 2 2 2 3 1 1 2 3 6 7 7 8 11 8 6 9 9 7 6 5 3 2 2 3 3 6 6 6 4 3 3 2 2 3 7 3 4 3 2 2 2
1 5 3 1 2 1 3 1 2 3 7 5 4 1 5 7 8 11 11 11 8 8 10 9 9 9 9 5 4 5 4 3 4 5 6 4 3 4 4 3 4 3 3 4 4 3 4 4 4
3 3 4 1 0 2 1 5 5 7 9 6 5 4 8 8 10 9 8 7 7 9 10 11 11 10 10 9 6 6 7 5 6 5 6 5 4 4 4 4 3 4 3 3 4 4 4 4 5
1 3 5 4 1 3 4 5 6 3 3 6 5 7 7 9 13 6 6 12 9 12 11 11 13 12 11 11 11 9 8 7 6 6 7 8 6 5 5 4 5 4 4 4 4 5 4 4 4
1 3 6 3 2 3 1 7 8 7 6 7 9 10 8 10 9 12 13 12 12 12 11 10 13 12 13 13 11 10 8 8 8 7 8 10 9 8 8 6 6 6 5 6 4 4 4 4 4
3 3 3 4 3 5 4 13 7 10 4 10 10 9 11 8 9 10 12 12 11 11 11 12 11 14 15 14 11 10 10 9 9 8 8 11 12 11 9 7 8 6 6 6 4 5 5 4 4
4 3 4 5 3 4 7 1 4 6 7 10 9 8 9 12 9 9 10 11 13 14 14 13 14 16 17 15 11 12 13 12 10 9 9 12 12 12 10 8 7 7 6 6 7 6 6 4 5
9 6 0 5 3 3 10 15 6 8 5 9 10 11 8 9 15 14 10 10 13 13 14 15 13 17 16 13 10 8 9 10 10 11 11 13 11 13 11 8 8 8 7 7 6 8 6 5 7
3 3 5 3 6 3 7 12 10 7 9 12 13 12 13 13 13 13 13 11 11 13 13 15 15 18 12 10 11 11 13 11 10 11 13 14 13 14 13 10 9 9 10 10 10 8 9 7 3
7 8 4 5 4 3 12 20 13 6 9 16 18 16 16 15 12 12 14 14 10 14 15 16 17 17 14 12 12 11 12 10 10 9 11 14 15 15 14 14 11 12 9 11 11 11 5 6 7
6 11 5 8 0 4 6 23 14 14 6 10 12 12 14 14 17 17 12 11 11 11 14 15 16 18 16 18 11 9 8 7 7 10 10 15 15 15 16 16 14 12 11 11 12 12 14 10 5
13 6 7 5 3 8 7 13 3 5 10 7 11 12 8 13 14 14 14 13 10 14 12 13 15 16 16 17 14 17 14 14 13 12 12 12 16 17 17 17 15 14 11 14 12 10 12 11 9
4 6 8 6 5 2 11 7 1 2 7 14 9 10 10 9 10 15 16 16 15 9 9 11 14 15 17 15 16 14 16 13 11 10 13 14 12 16 17 17 16 16 12 14 15 13 14 12 12
5 5 2 3 3 9 10 8 21 6 7 6 3 9 8 10 12 13 14 13 13 10 9 10 10 14 13 14 16 19 18 16 12 12 11 11 10 11 17 18 17 16 15 16 14 15 15 15 13
5 5 2 2 7 9 3 8 19 6 9 10 8 10 10 8 9 10 14 15 11 12 12 8 7 8 9 11 13 16 19 18 19 16 12 13 11 11 15 17 15 14 16 17 15 15 16 16 16
9 11 8 6 5 5 3 8 10 11 9 4 4 6 5 7 8 10 13 15 15 15 15 11 9 7 5 7 12 14 16 12 12 13 11 11 12 13 12 12 15 17 18 16 16 13 14 16 15
7 11 13 3 1 1 5 8 11 11 15 3 4 4 6 7 8 12 13 16 18 18 17 17 17 14 12 9 8 10 11 12 13 14 13 11 13 12 13 15 17 18 18 19 17 14 16 15 16
8 9 3 5 6 10 5 5 10 6 2 5 5 8 9 7 8 13 15 16 16 16 18 19 19 17 16 16 13 11 9 9 12 13 14 14 14 15 14 15 17 17 19 18 18 15 17 17 15
8 8 4 5 5 5 2 8 9 11 5 3 2 5 6 8 9 11 11 12 13 16 18 18 19 18 19 17 17 14 13 13 10 11 14 15 15 16 16 16 16 18 18 18 17 18 19 20 19
18 17 15 7 6 3 3 12 7 7 5 4 1 3 7 8 9 10 12 12 14 15 16 15 17 17 17 16 16 16 15 14 13 13 14 13 15 16 17 17 17 18 18 17 19 20 18 20 20
Wind_Direction
324 319 47 41 54 61 25 286 287 127 50 344 32 133 154 92 154 201 353 139 128 142 148 141 144 139 137 140 146 148 134 133 131 128 133 132 120 118 112 112 112 106 102 109 102 99 103 106 102
322 337 40 69 77 64 293 289 151 261 134 104 72 42 18 84 171 125 116 163 143 139 140 139 140 142 142 145 157 143 133 134 137 125 131 142 127 123 123 122 123 116 119 108 107 103 100 96 51
345 35 69 79 92 139 185 240 259 17 111 264 69 63 128 307 312 174 185 141 138 135 131 145 141 144 144 139 129 129 130 133 144 131 138 141 134 129 129 136 129 131 113 116 111 112 103 70 30
8 8 36 76 67 257 229 211 221 335 4 61 111 33 328 345 235 214 144 140 132 136 136 149 149 149 150 147 146 143 145 143 144 163 148 135 142 140 142 143 124 140 125 120 119 115 87 57 33
31 50 51 80 352 292 250 273 155 213 242 57 94 241 317 340 32 124 136 140 141 137 142 152 155 157 155 157 155 156 159 157 150 144 153 139 148 152 148 142 135 143 130 127 125 116 102 62 35
39 82 56 88 309 289 281 231 145 237 282 66 71 116 255 320 98 152 131 137 152 150 150 159 164 163 165 163 166 169 166 159 157 161 174 145 151 154 151 147 157 143 139 142 130 120 101 65 43
98 75 170 163 268 358 318 26 45 279 306 76 153 120 293 318 112 134 130 122 149 157 152 157 172 176 178 172 172 172 172 159 168 176 166 160 159 163 157 156 158 158 157 148 146 138 104 78 58
98 89 117 263 181 86 326 352 142 93 245 286 151 186 251 224 144 133 126 137 159 167 174 168 179 186 188 192 181 180 173 170 162 168 186 178 180 169 165 162 166 169 165 162 166 169 159 98 55
107 65 160 221 178 160 322 28 2 242 347 47 52 146 263 143 129 129 138 158 164 212 196 173 185 201 203 194 206 185 185 174 167 167 177 196 190 184 170 153 183 163 153 175 189 197 193 111 31
79 117 211 211 174 118 47 25 315 51 342 310 327 345 10 134 154 164 179 194 199 198 197 182 182 194 205 211 200 212 184 187 173 175 180 181 190 193 163 168 193 171 167 181 200 209 214 104 24
149 193 207 218 222 347 358 348 326 97 311 238 220 276 174 165 179 192 205 202 210 205 204 189 182 186 195 211 197 217 213 179 186 183 185 185 187 186 156 185 197 190 170 177 201 222 221 224 227
189 268 221 150 69 360 300 316 317 212 232 194 221 188 170 199 212 210 213 213 203 204 206 202 195 189 190 196 198 208 213 204 193 195 188 185 191 189 189 180 180 181 186 186 198 215 231 239 243
197 255 291 45 99 224 256 257 240 234 260 266 286 173 205 216 223 237 242 248 221 219 208 205 196 200 196 191 196 202 215 212 204 196 198 178 194 209 176 190 180 182 181 194 209 218 235 246 247
275 307 306 327 276 261 233 248 140 266 227 262 289 272 234 221 228 246 243 241 222 231 217 202 205 202 203 205 187 203 209 212 210 206 202 199 194 187 194 188 192 197 188 192 203 206 214 232 232
113 296 309 280 260 274 245 279 230 265 298 274 278 280 257 241 236 229 236 238 234 228 227 203 206 202 206 209 206 190 201 201 207 212 203 203 201 198 192 194 202 205 194 193 202 228 230 238 237
162 53 234 283 257 256 160 258 283 280 285 286 295 294 297 270 242 241 237 231 234 242 222 213 205 206 211 212 207 210 188 201 205 208 207 207 207 204 201 205 204 201 195 198 193 211 227 231 223
207 214 199 290 267 282 189 273 288 349 339 303 298 289 287 299 289 253 241 231 232 227 230 223 209 210 212 215 212 212 211 193 202 204 207 207 209 207 205 205 208 193 203 202 204 210 207 209 228
220 231 266 190 295 272 281 271 279 291 290 280 286 292 273 261 272 278 250 231 234 229 228 228 219 219 213 212 215 218 225 229 200 202 207 206 208 207 208 206 203 196 202 208 198 205 205 205 218
131 184 209 216 238 256 256 276 277 276 301 285 283 279 276 267 258 259 259 248 233 231 220 220 217 221 207 207 204 211 218 215 227 210 209 207 206 206 206 214 202 199 210 210 209 210 209 221 186
230 237 218 245 211 235 273 274 274 243 248 269 276 279 273 275 272 254 253 258 240 239 227 226 219 221 212 209 216 215 216 222 223 223 209 209 211 207 208 212 210 204 212 218 209 205 206 218 181
215 227 194 226 30 266 289 277 265 265 243 262 266 251 265 263 275 281 272 259 256 242 233 225 224 219 214 214 213 218 224 233 210 218 215 212 210 211 212 210 210 207 207 215 213 207 211 221 201
238 194 190 215 193 254 159 286 159 259 273 250 264 283 271 271 281 281 283 278 255 253 241 233 229 222 219 212 211 209 211 217 221 220 228 224 197 211 214 215 210 208 207 215 213 209 213 212 215
219 157 174 181 207 284 240 271 201 193 277 272 273 267 278 282 281 288 290 285 281 258 249 236 230 225 222 212 209 213 219 227 229 223 223 221 219 206 214 214 212 214 211 216 214 208 208 210 218
136 99 58 99 198 245 242 202 280 250 228 292 280 288 314 310 308 309 312 302 290 286 277 262 230 225 220 214 210 217 221 223 223 223 223 223 217 218 212 214 213 216 216 216 213 212 211 214 219
167 114 273 312 212 237 149 188 246 296 278 246 275 303 309 326 316 336 343 353 339 332 320 299 251 237 224 218 219 219 224 224 226 223 220 223 221 218 221 212 215 221 222 221 215 212 214 213 216
204 198 215 202 209 237 140 226 252 247 268 313 246 268 318 347 335 346 350 352 354 2 355 345 329 295 257 225 230 232 231 231 235 236 234 234 232 229 228 213 216 223 228 223 222 220 217 216 218
188 200 218 310 135 24 227 279 286 269 277 294 51 352 3 353 348 356 2 4 7 8 10 7 5 7 5 332 309 264 245 241 245 243 241 241 242 239 224 213 210 214 221 225 219 222 223 221 220
171 153 137 175 233 241 240 250 243 272 87 133 2 5 351 346 360 15 21 17 13 11 7 11 11 13 13 4 355 329 294 268 257 251 248 242 243 242 233 221 216 214 217 219 218 223 226 223 222
189 206 195 135 166 184 227 250 210 251 214 177 108 340 335 354 32 28 17 14 13 11 9 6 6 3 5 359 345 341 332 324 289 261 254 248 245 242 238 231 224 220 219 218 217 220 224 223 225
217 221 208 214 218 236 283 267 138 152 148 126 296 352 37 45 24 21 22 10 10 13 2 3 3 358 356 349 342 340 336 335 324 307 286 270 257 250 244 238 231 226 224 215 217 220 222 225 225